TimeWET,TemperatureF,Dew PointF,Humidity,Sea Level PressureIn,VisibilityMPH,Wind Direction,Wind SpeedMPH,Gust SpeedMPH,PrecipitationIn,Events,Conditions,WindDirDegrees,DateUTC
12:00 AM,65,65,99,29.62,6,Calm,Calm,,,,Mostly Cloudy,,2012-10-31 00:00:00
12:00 AM,64.4,64.4,100,29.65,6.2,Calm,Calm,-,N/A,Rain,Light Rain,0,2012-10-31 00:00:00
12:30 AM,66.2,64.4,94,29.65,6.2,SW,3.5,-,N/A,Rain,Light Rain,220,2012-10-31 00:30:00
1:00 AM,66.2,64.4,94,29.65,6.2,WSW,8.1,-,N/A,Rain,Light Rain,250,2012-10-31 01:00:00
1:30 AM,68.0,64.4,88,29.65,6.2,WSW,17.3,-,N/A,Rain,Light Rain,240,2012-10-31 01:30:00
2:00 AM,68.0,66.2,94,29.68,6.2,WSW,16.1,-,N/A,Rain,Light Rain,250,2012-10-31 02:00:00
2:30 AM,68.0,68.0,100,29.65,3.1,WSW,16.1,-,N/A,,Unknown,250,2012-10-31 02:30:00
3:00 AM,68,68,99,29.62,6,West,16.1,,,,,260,2012-10-31 03:00:00
3:00 AM,68.0,68.0,100,29.68,6.2,West,16.1,-,N/A,,Unknown,260,2012-10-31 03:00:00
3:30 AM,68.0,68.0,100,29.68,6.2,West,16.1,-,N/A,,Unknown,260,2012-10-31 03:30:00
4:00 AM,68.0,68.0,100,29.68,6.2,WSW,12.7,-,N/A,,Unknown,250,2012-10-31 04:00:00
4:30 AM,68.0,68.0,100,29.68,6.2,WSW,13.8,-,N/A,,Unknown,250,2012-10-31 04:30:00
5:00 AM,68.0,66.2,94,29.68,6.2,WSW,16.1,-,N/A,,Unknown,250,2012-10-31 05:00:00
5:30 AM,68.0,66.2,94,29.68,6.2,WSW,11.5,-,N/A,,Unknown,250,2012-10-31 05:30:00
6:00 AM,68,66,93,29.66,6,West,15.0,,,,Partly Cloudy,260,2012-10-31 06:00:00
6:00 AM,68.0,66.2,94,29.71,6.2,West,15.0,-,N/A,,Scattered Clouds,260,2012-10-31 06:00:00
6:30 AM,68.0,66.2,94,29.71,6.2,West,10.4,-,N/A,,Scattered Clouds,260,2012-10-31 06:30:00
7:00 AM,68.0,66.2,94,29.71,6.2,SW,9.2,-,N/A,,Mostly Cloudy,220,2012-10-31 07:00:00
7:30 AM,68.0,66.2,94,29.71,6.2,WSW,5.8,-,N/A,,Mostly Cloudy,250,2012-10-31 07:30:00
8:00 AM,68.0,66.2,94,29.74,6.2,WSW,6.9,-,N/A,,Mostly Cloudy,250,2012-10-31 08:00:00
8:30 AM,68.0,68.0,100,29.74,6.2,WSW,6.9,-,N/A,,Mostly Cloudy,250,2012-10-31 08:30:00
9:00 AM,68,67,96,29.71,6,SSW,4.6,,,,Mostly Cloudy,210,2012-10-31 09:00:00
9:00 AM,68.0,68.0,100,29.77,6.2,SSW,4.6,-,N/A,,Mostly Cloudy,210,2012-10-31 09:00:00
9:30 AM,69.8,68.0,94,29.77,6.2,SW,6.9,-,N/A,,Mostly Cloudy,230,2012-10-31 09:30:00
10:00 AM,69.8,66.2,88,29.77,6.2,WSW,9.2,-,N/A,,Mostly Cloudy,240,2012-10-31 10:00:00
10:30 AM,69.8,68.0,94,29.77,6.2,WSW,8.1,-,N/A,,Mostly Cloudy,240,2012-10-31 10:30:00
11:00 AM,69.8,68.0,94,29.77,6.2,West,8.1,-,N/A,,Mostly Cloudy,260,2012-10-31 11:00:00
11:30 AM,71.6,68.0,88,29.77,6.2,West,10.4,-,N/A,,Mostly Cloudy,270,2012-10-31 11:30:00
12:00 PM,72,67,79,29.70,6,West,9.2,,,,Overcast,270,2012-10-31 12:00:00
12:00 PM,71.6,66.2,83,29.77,6.2,West,9.2,-,N/A,,Mostly Cloudy,270,2012-10-31 12:00:00
12:30 PM,73.4,68.0,83,29.74,6.2,West,8.1,-,N/A,,Mostly Cloudy,280,2012-10-31 12:30:00
1:00 PM,73.4,68.0,83,29.74,6.2,WNW,8.1,-,N/A,,Mostly Cloudy,300,2012-10-31 13:00:00
1:30 PM,73.4,68.0,83,29.74,6.2,NW,8.1,-,N/A,,Mostly Cloudy,310,2012-10-31 13:30:00
2:00 PM,71.6,68.0,88,29.74,3.7,West,10.4,-,N/A,,Mostly Cloudy,280,2012-10-31 14:00:00
3:00 PM,69.8,68.0,94,29.74,5.0,Variable,2.3,-,N/A,Rain,Rain Showers,0,2012-10-31 15:00:00
3:30 PM,68.0,66.2,94,29.74,5.0,SSW,3.5,-,N/A,,Scattered Clouds,200,2012-10-31 15:30:00
4:00 PM,69.8,68.0,94,29.77,5.0,South,4.6,-,N/A,,Scattered Clouds,190,2012-10-31 16:00:00
4:30 PM,69.8,68.0,94,29.77,5.0,WSW,3.5,-,N/A,Rain,Light Rain,240,2012-10-31 16:30:00
5:00 PM,69.8,68.0,94,29.74,5.0,SW,5.8,-,N/A,Rain,Light Rain,230,2012-10-31 17:00:00
5:30 PM,68.0,66.2,94,29.74,5.0,WSW,6.9,-,N/A,,Scattered Clouds,250,2012-10-31 17:30:00
6:00 PM,69,67,92,29.70,5,WNW,1.2,,,Rain,Light Rain,290,2012-10-31 18:00:00
6:00 PM,68.0,68.0,100,29.74,5.0,Variable,1.2,-,N/A,,Scattered Clouds,0,2012-10-31 18:00:00
6:30 PM,68.0,66.2,94,29.77,6.2,NW,4.6,-,N/A,,Mostly Cloudy,310,2012-10-31 18:30:00
7:00 PM,68.0,66.2,94,29.77,6.2,Variable,1.2,-,N/A,,Mostly Cloudy,0,2012-10-31 19:00:00
7:30 PM,68.0,66.2,94,29.80,6.2,Variable,2.3,-,N/A,,Mostly Cloudy,0,2012-10-31 19:30:00
8:00 PM,68.0,66.2,94,29.80,4.3,WSW,8.1,-,N/A,,Mostly Cloudy,250,2012-10-31 20:00:00
8:30 PM,68.0,66.2,94,29.83,5.6,West,9.2,-,N/A,Rain,Rain,260,2012-10-31 20:30:00
9:00 PM,66,66,100,29.78,3,WSW,15.0,,,Rain,Rain,240,2012-10-31 21:00:00
9:00 PM,66.2,66.2,100,29.83,3.1,WSW,15.0,-,N/A,Rain,Rain,250,2012-10-31 21:00:00
9:30 PM,66.2,66.2,100,29.83,6.2,SW,11.5,-,N/A,Rain,Rain,230,2012-10-31 21:30:00
10:00 PM,66.2,66.2,100,29.83,6.2,WSW,9.2,-,N/A,Rain,Light Rain,240,2012-10-31 22:00:00
10:30 PM,66.2,66.2,100,29.83,6.2,West,3.5,-,N/A,,Scattered Clouds,270,2012-10-31 22:30:00
11:00 PM,66.2,66.2,100,29.83,6.2,SSW,4.6,-,N/A,,Scattered Clouds,210,2012-10-31 23:00:00
11:30 PM,66.2,66.2,100,29.83,6.2,Calm,Calm,-,N/A,,Scattered Clouds,0,2012-10-31 23:30:00